Location: Recife
(8.0585°S, 34.8848°W)
Time: 20:18:33
(UTC-03:00)

A-11 Canister half - Pass Details

Date: 14 April 2026
Orbit: 1515 x 1684 km, 47.2° (Epoch: 16 May)

Event Time Altitude Azimuth Distance (km) Brightness Sun altitude
Rises 17:13:43 0° 266° (W) 4,935 13.7 0.1°
Reaches altitude 10° 17:19:47 10° 239° (WSW) 3,940 12.0 -1.4°
Maximum altitude 17:23:37 13° 216° (SW) 3,725 11.4 -2.3°
Drops below altitude 10° 17:27:27 10° 193° (SSW) 3,915 11.2 -3.2°
Sets 17:33:30 0° 166° (SSE) 4,869 11.4 -4.7°
